Location: Rounton
(54.4000°N, 1.3500°W)
Time: 03:31:44
(UTC+00:00)

Envisat - Pass Details

Date: 31 October 2021
Orbit: 764 x 766 km, 98.2° (Epoch: 28 November)

Event Time Altitude Azimuth Distance (km) Brightness Sun altitude
Rises 04:54:36 0° 18° (NNE) 3,247 6.5 -19.4°
Reaches altitude 10° 04:57:00 10° 24° (NNE) 2,315 5.8 -19.0°
Maximum altitude 05:01:57 49° 99° (E) 985 4.0 -18.3°
Drops below altitude 10° 05:06:51 10° 174° (S) 2,298 5.5 -17.6°
Sets 05:09:14 0° 180° (S) 3,219 6.2 -17.3°
